Regional Weather Roundup
Issued by NWS

Home | Current Version | Previous Version | Graphics & Text | Print | Product List | Glossary On
Versions: 1 2 3 4 5 6 7 8 9 10 11 12 13 14 15 16 17 18 19 20 21 22 23 24 25 26 27 28 29 30 31 32 33 34 35 36 37 38 39 40 41 42 43 44 45 46 47 48 49 50
000
ASUS43 KLOT 201303
RWRIL

ILLINOIS REGIONAL WEATHER ROUNDUP
NATIONAL WEATHER SERVICE CHICAGO/ROMEOVILLE IL
800 AM CDT SUN AUG 20 2017

NOTE: "FAIR" INDICATES FEW OR NO CLOUDS BELOW 12,000 FEET WITH NO
SIGNIFICANT WEATHER AND/OR OBSTRUCTIONS TO VISIBILITY.

* THESE STATIONS ARE NOT UNDER NWS QUALITY CONTROL. THEY ALSO MAY NOT
  REPORT WEATHER SUCH AS PRECIPITATION OR FOG.

ILZ001-002-007-009-015-016-024-201400-
NORTHWEST ILLINOIS

CITY           SKY/WX    TMP DP  RH WIND       PRES   REMARKS
MOLINE         CLOUDY    68  63  84 E5        29.98S
STERLING*      CLOUDY    66  64  93 E5        30.01R
SAVANNA*       CLOUDY    66  63  88 CALM      30.00R
$$

ILZ003-004-008-010-011-017-018-201400-
NORTH CENTRAL ILLINOIS

CITY           SKY/WX    TMP DP  RH WIND       PRES   REMARKS
ROCKFORD       CLOUDY    65  61  87 S6        30.03R
FREEPORT*      CLOUDY    62  60  93 SE3       30.03R
ROCHELLE*      CLOUDY    65  64  94 S3        30.03R
PERU*          MOSUNNY   68  62  81 SE3       30.02S
$$

ILZ005-006-012>014-019>023-201400-
NORTHEAST ILLINOIS

CITY           SKY/WX    TMP DP  RH WIND       PRES   REMARKS
CHICAGO-OHARE  PTSUNNY   71  61  70 S3        30.03S
CHICAGO-MIDWAY PTSUNNY   71  61  70 S5        30.03S
AURORA         CLOUDY    67  64  90 CALM      30.03S
LANSING*       CLOUDY    68  60  75 SE5       30.04S
JOLIET*        CLOUDY    69  64  84 SE3       30.03S
WAUKEGAN       CLOUDY    69  62  78 S5        30.02F
DUPAGE AIRPORT CLOUDY    68  63  84 SE3       30.02F HAZE
KANKAKEE*      CLOUDY    66  62  88 SE3       30.04S
WHEELING       MOSUNNY   68  63  84 SE5       30.04S
MORRIS*        CLOUDY    66  63  90 CALM      30.02R FOG
NORTHERLY ISL    N/A     72  60  66 SE3         N/A
$$

LMZ740>746-201400-
SOUTHERN LAKE MICHIGAN

STATION/POSITION SKY/WX   TEMP    WIND        PRES    VSBY  WAVE
                          AIR SEA DIR/SP/G                  HT/PER
                          (F)     (DEG/KT/KT) (MB)    (MI)  (FT/S)
SOUTHERN BUOY              72 71  190/ 10/ 12 1017.0          1
WILMETTE HARBOR            72 73  180/  6/  6   N/A           1/ 3
HARRISON CRIB              72     180/  9/  9   N/A
CALUMET HARBOR             70     170/  4/  5 1016.6S
BURNS HARBOR               72     160/  8/ 13 1017.6S
MICHIGAN CITY              68     130/  8/  9   N/A
MICHIGAN CITY 6N           70 74  160/ 10/ 14   N/A           1
ST. JOSEPH                 70 75  170/ 10/ 12 1017.4F         1
$$

ILZ025>027-034>036-040-047-049-050-058-095>099-201400-
WEST-CENTRAL ILLINOIS

CITY           SKY/WX    TMP DP  RH WIND       PRES   REMARKS
QUINCY         CLOUDY    72  68  87 S5        30.00R
GALESBURG*     CLOUDY    65  63  93 SE3       30.01R
MACOMB*        CLOUDY    65  65  99 S3        30.02R FOG
JACKSONVILLE*  CLOUDY    72  67  86 S3        30.01R
PITTSFIELD*    CLOUDY    70  68  95 CALM      30.02R
$$

ILZ028>032-037-038-041>044-048-051>054-059>061-201400-
CENTRAL ILLINOIS

CITY           SKY/WX    TMP DP  RH WIND       PRES   REMARKS
PONTIAC        CLOUDY    66  65  97 SE6       30.03S
BLOOMINGTON    CLOUDY    72  68  87 S7        30.04R
DECATUR        CLOUDY    73  69  87 S3        30.03R
PEORIA         PTSUNNY   71  67  87 S3        30.02R
LACON*         MOSUNNY   67  64  89 CALM      30.01R
LINCOLN*       MOSUNNY   69  68  97 SE3       30.02R
SPRINGFIELD    CLOUDY    74  70  87 CALM      30.02R
TAYLORVILLE    CLOUDY    73  69  87 S5        30.02R
$$

ILZ033-039-045-046-055>057-062-063-201400-
EAST-CENTRAL ILLINOIS

CITY           SKY/WX    TMP DP  RH WIND       PRES   REMARKS
CHAMPAIGN      CLOUDY    71  66  84 SE6       30.04R
RANTOUL*       SUNNY     71  67  87 SE6       30.05R
MATTOON        CLOUDY    72  71  97 SE5       30.05R
PARIS*         SUNNY     71  69  95 S6        30.07R
$$

ILZ079-100>102-201400-
SOUTHWEST ILLINOIS

CITY           SKY/WX    TMP DP  RH WIND       PRES   REMARKS
ALTON          PTSUNNY   70  70 100 VRB5      30.02R
BELLEVILLE     CLOUDY    73  71  92 CALM      30.03R
CAHOKIA*       SUNNY     77  71  82 CALM      30.01R
SPARTA*        MOSUNNY   75  73  93 CALM      30.03R
$$

ILZ064>066-069>071-074>076-080>082-084>086-088>090-092>094-201400-
SOUTH-CENTRAL ILLINOIS

CITY           SKY/WX    TMP DP  RH WIND       PRES   REMARKS
CARBONDALE     SUNNY     75  75 100 SE3       30.03R
CAIRO*         SUNNY     72  72 100 CALM      30.05R FOG
EFFINGHAM*     CLOUDY    73  71  96 SE5       30.07R
MARION         MOSUNNY   77  75  94 SE6       30.05R
MT. VERNON       N/A     73  71  93 CALM      30.05R
CENTRALIA*     SUNNY     74  73  96 CALM      30.03R
SALEM*         CLOUDY    75  71  86 CALM      30.05R
METROPOLIS*    LGT RAIN  73  72  94 CALM      30.06R
$$

ILZ067-068-072-073-078-083-087-091-201400-
SOUTHEAST ILLINOIS

CITY           SKY/WX    TMP DP  RH WIND       PRES   REMARKS
LAWRENCEVILLE  PTSUNNY   73  70  90 CALM      30.05S
FLORA*         CLOUDY    75  72  90 SE3       30.05R
FAIRFIELD*     PTSUNNY   75  73  96 CALM      30.04S
HARRISBURG*    MOSUNNY   73  72  96 CALM      30.05R
ROBINSON*      PTSUNNY   70  70 100 CALM      30.06R FOG
CARMI*         CLOUDY    73  73 100 NE3       30.05R FOG
$$

ABBREVIATIONS USED IN REMARKS
   TC - TEMPERATURE IN CELSIUS
  WCI - WIND CHILL INDEX
   HX - HEAT INDEX
  VSB - VISIBILITY
$$





USA.gov is the U.S. government's official web portal to all federal, state and local government web resources and services.